Home > Weather > Uroševac > Past weeks

Flag for Kosovo Weather for the Past 2 Weeks in Uroševac, Kosovo

Now
46 °F

Fog.


Feels Like: 46 °F
Forecast: 41 / 60 °F
Wind: No wind

Location: Skopje-Petrovec

Current Time: Feb 13, 2016 at 12:12:01 PM

Latest Report: Feb 13, 2016 at 11:30 AM


Visibility: 3 mi

Pressure: 29.53 "Hg (27.51 "Hg at 582m altitude)

Humidity: 87%

Dew point: 43 °F

Location of UroševacLocation

Historic Weather in Uroševac — Graph

°F

Uroševac Temperature Yesterday

Maximum temperature yesterday: 50 °F (at 2:00 PM)
Minimum temperature yesterday: 32 °F (at 3:00 AM)
Average temperature yesterday: 40 °F

High & Low Weather Summary for the Past Weeks

 TemperatureHumidityPressure
High66 °F (Feb 2, 2:30 PM)100% (Jan 29, 1:00 PM)30.51 "Hg (Jan 29, 1:00 PM)
Low21 °F (Feb 7, 6:00 AM)29% (Feb 6, 2:00 PM)29.45 "Hg (Feb 10, 4:30 PM)
Average41 °F76%30.11 "Hg
* Reported Jan 29 11:00 AM — Feb 13 11:00 AM, Uroševac, Weather by CustomWeather, © 2016

Note: Actual official high and low records may vary slightly from our data, if they occured in-between our weather recording intervals... More about our weather records

Advertising

Uroševac Weather History for the Previous 24 Hours

 ConditionsComfort  
Time TempWeatherWind HumidityBarometerVisibility
11:00 AM
Sat, Feb 13
46 °FFog.No wind87%29.53 "Hg3 mi
10:30 AM45 °FFog.No wind93%29.56 "Hg2 mi
10:00 AM45 °FFog.No wind93%29.56 "Hg2 mi
9:30 AM43 °FFog.1 mph93%29.59 "Hg2 mi
9:00 AM43 °FFog.1 mph93%29.59 "Hg2 mi
8:30 AM43 °FFog.5 mph93%29.59 "Hg1 mi
8:00 AM43 °FFog.No wind93%29.59 "Hg1 mi
7:30 AM43 °FFog.No wind93%29.59 "Hg1 mi
7:00 AM41 °FFog.No wind100%29.59 "Hg1 mi
6:30 AM41 °FFog.No wind100%29.62 "Hg1 mi
6:00 AM41 °FFog.No wind100%29.62 "Hg1 mi
5:30 AM43 °FFog.No wind93%29.65 "Hg1 mi
5:00 AM41 °FFog.No wind100%29.65 "Hg2 mi
4:30 AM43 °FFog.No wind93%29.65 "Hg2 mi
4:00 AM41 °FDrizzle. Fog.No wind100%29.68 "Hg1 mi
3:30 AM43 °FDrizzle. Fog.No wind93%29.68 "Hg1 mi
3:00 AM43 °FFog.No wind93%29.68 "Hg2 mi
2:30 AM43 °FFog.No wind93%29.71 "Hg2 mi
2:00 AM43 °FFog.No wind93%29.71 "Hg1 mi
1:30 AM41 °FDrizzle. Fog.2 mph100%29.71 "Hg1 mi
1:00 AM41 °FFog.No wind100%29.71 "Hg3 mi
12:00 AM43 °FFog.No wind93%29.74 "Hg3 mi
11:30 PM
Fri, Feb 12
43 °FPartly cloudy.2 mph93%29.74 "Hg4 mi
11:00 PM43 °FOvercast.No wind93%29.77 "Hg4 mi
10:30 PM43 °FOvercast.2 mph93%29.77 "Hg4 mi
10:00 PM43 °FOvercast.No wind93%29.77 "HgN/A
9:30 PM43 °FOvercast.2 mph93%29.80 "HgN/A
9:00 PM43 °FOvercast.1 mph93%29.80 "HgN/A
8:30 PM43 °FPartly cloudy.1 mph93%29.80 "HgN/A
8:00 PM43 °FPassing clouds.1 mph93%29.80 "HgN/A
7:30 PM45 °FLight rain. Mostly cloudy.1 mph87%29.80 "HgN/A
7:00 PM45 °FRain. Mostly cloudy.5 mph87%29.83 "HgN/A
6:30 PM45 °FLight rain. Overcast.3 mph87%29.83 "HgN/A
6:00 PM45 °FRain. Mostly cloudy.2 mph87%29.83 "HgN/A
5:30 PM46 °FLight rain. Mostly cloudy.2 mph82%29.80 "HgN/A
5:00 PM46 °FLight rain. More clouds than sun.3 mph82%29.80 "HgN/A
4:30 PM48 °FDrizzle. Overcast.2 mph71%29.83 "HgN/A
4:00 PM48 °FMostly cloudy.2 mph71%29.83 "HgN/A
3:30 PM50 °FOvercast.3 mph67%29.83 "HgN/A
3:00 PM50 °FOvercast.2 mph67%29.83 "HgN/A
2:30 PM50 °FOvercast.2 mph67%29.83 "HgN/A
2:00 PM50 °FOvercast.2 mph67%29.83 "HgN/A
1:30 PM48 °FPassing clouds.1 mph71%29.83 "HgN/A
1:00 PM48 °FPassing clouds.No wind71%29.86 "HgN/A
12:30 PM46 °FSunny.3 mph76%29.86 "Hg10 mi
12:00 PM45 °FSunny.2 mph87%29.89 "Hg10 mi
Weather by CustomWeather, © 2016

See weather overviewHow to use our weather pages